Weather History for KTBN - July, 2013

Change the Weather History Date:

Monday, July 15, 2013

  Actual Average Record
Temperature  
Mean Temperature 76 °F -  
Max Temperature 87 °F 86 °F 96 °F (2006)
Min Temperature 68 °F 69 °F 54 °F (2014)
Cooling Degree Days 12    
Growing Degree Days 26 (Base 50)    
Moisture  
Dew Point 71 °F    
Average Humidity 85    
Maximum Humidity 100    
Minimum Humidity 59    
Precipitation  
Precipitation 0.66 in - - ()
Sea Level Pressure  
Sea Level Pressure 30.19 in    
Wind  
Wind Speed 6 mph (SE)    
Max Wind Speed 20 mph    
Max Gust Speed 29 mph    
Visibility 9 miles    
Events Rain , Thunderstorm    
Averages and records for this station are not official NWS values.
T = Trace of Precipitation, MM = Missing Value Source: NWS Daily Summary

Daily Weather History Graph

Daily Weather History Graph

Search for Another Location

Airport or City:

Trip Planner

Search our weather history database for the weather conditions in past years. The results will help you decide how hot, cold, wet, or windy it might be!

Date:

Astronomy

Jul. 15, 2013 Rise Set
Actual Time 5:58 AM CDT 8:29 PM CDT
Civil Twilight 5:28 AM CDT 9:00 PM CDT
Nautical Twilight 4:50 AM CDT 9:37 PM CDT
Astronomical Twilight 4:08 AM CDT 10:19 PM CDT
Moon 1:09 PM CDT (7/15) No Moon Set
Length of Visible Light 15h 31m
Length of Day
14h 30m
Waxing Crescent, 45% of the Moon is Illuminated
Jul 15
Waxing Crescent
Jul 15
First Quarter
Jul 22
Full
Jul 29
Last Quarter
Aug 6
New

Hourly Weather History & Observations

Time (CDT) Temp. Heat Index Dew Point Humidity Pressure Visibility Wind Dir Wind Speed Gust Speed Precip Events Conditions
12:59 AM 68.2 °F - 66.7 °F 95% 30.12 in 10.0 mi Calm Calm - N/A   Clear
2:56 AM 69.8 °F - 68.0 °F 94% 30.14 in 10.0 mi East 4.6 mph - N/A   Clear
3:56 AM 69.8 °F - 68.0 °F 94% 30.14 in 10.0 mi East 4.6 mph - N/A   Clear
4:58 AM 68.4 °F - 68.0 °F 99% 30.13 in 10.0 mi ESE 5.8 mph - N/A   Clear
5:58 AM 68.0 °F - 68.0 °F 100% 30.14 in 10.0 mi East 4.6 mph - N/A   Clear
6:58 AM 69.3 °F - 69.1 °F 99% 30.16 in 10.0 mi ESE 6.9 mph - N/A   Clear
7:28 AM 71.6 °F - 69.8 °F 94% 30.19 in 10.0 mi SSE 6.9 mph - N/A   Mostly Cloudy
7:58 AM 70.7 °F - 69.4 °F 96% 30.18 in 10.0 mi SE 5.8 mph - N/A   Scattered Clouds
8:18 AM 73.4 °F - 69.8 °F 88% 30.20 in 10.0 mi ESE 6.9 mph - N/A   Mostly Cloudy
8:38 AM 73.4 °F - 69.8 °F 88% 30.21 in 10.0 mi ESE 8.1 mph - N/A   Overcast
8:43 AM 73.4 °F - 69.8 °F 88% 30.21 in 10.0 mi SE 6.9 mph - N/A   Overcast
8:48 AM 73.4 °F - 69.8 °F 88% 30.21 in 10.0 mi SE 8.1 mph - N/A   Overcast
8:58 AM 74.1 °F - 70.7 °F 89% 30.19 in 10.0 mi SE 8.1 mph - N/A   Overcast
9:03 AM 73.4 °F - 71.6 °F 94% 30.21 in 10.0 mi SE 10.4 mph - N/A   Overcast
9:38 AM 77.0 °F - 71.6 °F 83% 30.22 in 10.0 mi SSE 11.5 mph - N/A   Overcast
9:58 AM 77.0 °F - 69.8 °F 78% 30.20 in 10.0 mi SSE 11.5 mph - N/A   Overcast
10:08 AM 77.0 °F - 71.6 °F 83% 30.22 in 10.0 mi SE 13.8 mph - N/A   Mostly Cloudy
10:38 AM 78.8 °F - 71.6 °F 78% 30.22 in 10.0 mi South 8.1 mph - N/A   Mostly Cloudy
10:58 AM 80.4 °F 84.2 °F 71.4 °F 74% 30.20 in 10.0 mi SE 9.2 mph - N/A   Mostly Cloudy
11:08 AM 80.6 °F 83.9 °F 69.8 °F 70% 30.22 in 10.0 mi South 10.4 mph 18.4 mph N/A   Scattered Clouds
11:53 AM 82.4 °F 87.2 °F 71.6 °F 70% 30.21 in 10.0 mi Variable 3.5 mph - N/A   Overcast
11:58 AM 81.9 °F 86.0 °F 70.9 °F 69% 30.19 in 10.0 mi Variable 5.8 mph - N/A   Mostly Cloudy
12:08 PM 82.4 °F 87.2 °F 71.6 °F 70% 30.21 in 10.0 mi Variable 5.8 mph - N/A   Mostly Cloudy
12:18 PM 82.4 °F 86.3 °F 69.8 °F 66% 30.21 in 10.0 mi SSE 4.6 mph - N/A   Mostly Cloudy
12:58 PM 85.5 °F 89.8 °F 69.6 °F 59% 30.18 in 10.0 mi ESE 8.1 mph - N/A   Scattered Clouds
2:24 PM 84.2 °F 89.6 °F 71.6 °F 66% 30.19 in 10.0 mi SE 10.4 mph - N/A   Light Drizzle
2:39 PM 82.4 °F 87.2 °F 71.6 °F 70% 30.19 in 10.0 mi SE 11.5 mph - N/A   Scattered Clouds
2:56 PM 82.4 °F 87.2 °F 71.6 °F 70% 30.19 in 10.0 mi SE 10.4 mph - N/A   Mostly Cloudy
3:58 PM 80.2 °F 83.7 °F 70.9 °F 73% 30.16 in 10.0 mi ESE 10.4 mph - N/A   Mostly Cloudy
4:58 PM 83.5 °F 89.1 °F 72.5 °F 69% 30.15 in 10.0 mi ESE 6.9 mph - N/A   Clear
5:58 PM 85.6 °F 90.8 °F 70.7 °F 61% 30.13 in 10.0 mi ESE 11.5 mph - N/A   Clear
6:58 PM 84.0 °F 88.7 °F 70.9 °F 64% 30.15 in 10.0 mi East 10.4 mph - N/A   Clear
7:58 PM 81.9 °F 86.2 °F 71.4 °F 70% 30.15 in 10.0 mi ESE 6.9 mph - N/A   Clear
8:58 PM 79.2 °F - 73.0 °F 81% 30.17 in 10.0 mi East 6.9 mph - N/A   Mostly Cloudy
8:59 PM 78.8 °F - 73.4 °F 83% 30.20 in 10.0 mi East 8.1 mph - N/A Thunderstorm Thunderstorm
9:00 PM 78.8 °F - 73.4 °F 83% 30.20 in 10.0 mi East 9.2 mph - N/A Rain , Thunderstorm Light Thunderstorms and Rain
9:05 PM 78.8 °F - 75.2 °F 89% 30.21 in 2.5 mi SE 19.6 mph 28.8 mph N/A Rain , Thunderstorm Light Thunderstorms and Rain
9:10 PM 77.0 °F - 73.4 °F 89% 30.21 in 0.8 mi South 6.9 mph 28.8 mph N/A Rain , Thunderstorm Heavy Thunderstorms and Rain
9:20 PM 73.4 °F - 73.4 °F 100% 30.22 in 1.0 mi South 5.8 mph - N/A Rain , Thunderstorm Heavy Thunderstorms and Rain
9:25 PM 73.4 °F - 73.4 °F 100% 30.22 in 1.0 mi SSW 6.9 mph - N/A Rain , Thunderstorm Light Thunderstorms and Rain
9:30 PM 71.6 °F - 71.6 °F 100% 30.22 in 2.5 mi Variable 4.6 mph - N/A Rain , Thunderstorm Light Thunderstorms and Rain
9:35 PM 73.4 °F - 73.4 °F 100% 30.23 in 5.0 mi SSW 3.5 mph - N/A Rain , Thunderstorm Light Thunderstorms and Rain
9:49 PM 73.4 °F - 73.4 °F 100% 30.23 in 10.0 mi Calm Calm - N/A Thunderstorm Thunderstorm
9:56 PM 73.4 °F - 73.4 °F 100% 30.23 in 10.0 mi Calm Calm - N/A   Overcast
9:57 PM 73.4 °F - 73.4 °F 100% 30.23 in 10.0 mi Calm Calm - N/A   Light Drizzle
9:58 PM 73.4 °F - 73.4 °F 100% 30.21 in 10.0 mi Calm Calm - 0.66 in   Light Drizzle
10:08 PM 73.4 °F - 73.4 °F 100% 30.23 in 10.0 mi Calm Calm - N/A   Overcast
10:58 PM 73.9 °F - 73.9 °F 100% 30.21 in 10.0 mi ESE 4.6 mph - 0.00 in   Mostly Cloudy
11:58 PM 73.9 °F - 73.9 °F 100% 30.21 in 10.0 mi ESE 5.8 mph - N/A   Mostly Cloudy